Home   Weather   Le Petit Paris   Past weeks
Flag for France

Past Weather in Le Petit Paris, Drôme, France — Yesterday and Last 2 Weeks

Now
72 °F

Passing clouds.


Feels Like: 75 °F
Forecast: 81 / 65 °F
Wind: 5 mph from Northeast

Location: Grenoble / St. Geoirs

Current Time: Jul 5, 2020 at 11:00:40 pm

Latest Report: Jul 5, 2020 at 10:00 pm


Visibility: N/A

Pressure: 30.09 "Hg

Humidity: 65%

Dew Point: 59 °F

Location of Le Petit ParisLocation

Past Weather in Le Petit Paris — Graph

°F

Le Petit Paris Temperature Yesterday

Maximum temperature yesterday: 77 °F (at 4:00 pm)
Minimum temperature yesterday: 57 °F (at 6:00 am)
Average temperature yesterday: 67 °F

High & Low Weather Summary for the Past Weeks

 TemperatureHumidityPressure
High88 °F (Jun 24, 4:30 pm)100% (Jun 21, 6:00 am)30.27 "Hg (Jun 21, 6:00 am)
Low48 °F (Jun 21, 6:00 am)31% (Jun 24, 6:00 pm)29.86 "Hg (Jul 1, 3:30 pm)
Average71 °F63%30.07 "Hg
* Reported Jun 20 10:00 pm — Jul 5 10:00 pm, Le Petit Paris. Weather by CustomWeather, © 2020

Note: Actual official high and low records may vary slightly from our data, if they occured in-between our weather recording intervals... More about our weather records

Le Petit Paris Weather History for the Previous 24 Hours

Scroll right to see more
 ConditionsComfort  
Time TempWeatherWind HumidityBarometerVisibility
10:00 pm
Sun, Jul 5
72 °FPassing clouds.5 mph65%30.09 "HgN/A
9:30 pm73 °FClear.3 mph61%30.07 "Hg10 mi
9:00 pm77 °FSunny.3 mph57%30.07 "Hg10 mi
8:30 pm81 °FSunny.3 mph51%30.07 "Hg10 mi
8:00 pm81 °FPassing clouds.7 mph51%30.07 "HgN/A
7:30 pm81 °FPassing clouds.10 mph51%30.09 "HgN/A
7:00 pm82 °FPassing clouds.9 mph48%30.09 "HgN/A
6:30 pm82 °FPassing clouds.9 mph48%30.09 "HgN/A
6:00 pm82 °FPassing clouds.8 mph48%30.09 "HgN/A
5:30 pm82 °FPassing clouds.8 mph48%30.09 "HgN/A
5:00 pm82 °FPassing clouds.7 mph51%30.09 "HgN/A
4:30 pm82 °FPassing clouds.9 mph48%30.09 "HgN/A
4:00 pm82 °FPassing clouds.7 mph48%30.09 "HgN/A
3:30 pm81 °FPassing clouds.9 mph51%30.12 "HgN/A
2:30 pm81 °FPassing clouds.10 mph51%30.12 "HgN/A
2:00 pm81 °FPassing clouds.10 mph51%30.12 "HgN/A
1:30 pm79 °FSunny.6 mph54%30.15 "Hg10 mi
1:00 pm79 °FPassing clouds.8 mph54%30.15 "HgN/A
12:30 pm77 °FPassing clouds.7 mph54%30.15 "HgN/A
12:00 pm77 °FPassing clouds.10 mph54%30.15 "HgN/A
11:30 am77 °FSunny.6 mph54%30.15 "Hg10 mi
11:00 am75 °FPassing clouds.8 mph57%30.15 "HgN/A
10:30 am73 °FPassing clouds.7 mph57%30.18 "HgN/A
10:00 am73 °FPassing clouds.9 mph57%30.18 "HgN/A
9:30 am72 °FClear.10 mph61%30.18 "HgN/A
9:00 am72 °FClear.3 mph61%30.18 "HgN/A
8:30 am70 °FClear.1 mph64%30.18 "HgN/A
8:00 am64 °FSunny.2 mph73%30.18 "Hg10 mi
7:30 am63 °FSunny.1 mph77%30.18 "Hg10 mi
7:00 am59 °FSunny.3 mph82%30.18 "Hg10 mi
6:30 am55 °FSunny.2 mph88%30.18 "Hg10 mi
6:00 am55 °FSunny.2 mph82%30.18 "Hg10 mi
5:30 am54 °FClear.2 mph94%30.18 "Hg10 mi
5:00 am55 °FClear.3 mph82%30.18 "Hg10 mi
4:30 am55 °FClear.2 mph88%30.18 "Hg10 mi
4:00 am55 °FClear.3 mph88%30.18 "Hg10 mi
3:30 am55 °FClear.2 mph88%30.18 "Hg10 mi
2:30 am57 °FClear.1 mph82%30.18 "Hg10 mi
2:00 am57 °FClear.2 mph82%30.18 "Hg10 mi
1:30 am59 °FClear.5 mph77%30.18 "Hg10 mi
1:00 am59 °FClear.5 mph77%30.18 "Hg10 mi
12:30 am61 °FPassing clouds.6 mph72%30.18 "HgN/A
12:00 am61 °FPassing clouds.3 mph72%30.18 "HgN/A
11:30 pm
Sat, Jul 4
63 °FClear.5 mph68%30.18 "Hg10 mi
11:00 pm63 °FClear.3 mph68%30.18 "Hg10 mi
Weather by CustomWeather, © 2020

See weather overview